FALCON 9 R/B, 42433

Orbit data source: Space-Track

FALCON 9 R/B, 42433 is space debris in HEO originally from a launch on Thu, 30 Mar 2017 UTC launched from the Air Force Eastern Test Range (AFETR). Debris objects in space refer to the collection of defunct objects orbiting the Earth. Examples of debris include non-operational satellites, rocket bodies, and fragments generated from explosions, collisions, or faulty payload assembly.

Loading next visibility...
Identifier
42433, 2017-017B
Orbit
HEO
Country
Flag of USUS
Related business
Manufacturer
SpaceX
Mission
Spacecraft
Bus & Motor
F9ST2, Unknown motor
Mass
~4,000 kg wet, ~4,000 kg dry
Launch date (UTC)
2017-03-30 (9 years ago)
Launch vehicle
Unknown
Launch site
Air Force Eastern Test Range (AFETR)
Object type
Payload
Rocket body
Debris
Shape & HBR
Cyl, 7.8 m
Radar Cross Section
39.980 m², Large (>1 m²)

Expand to show TLE details & history
Last TLE update: 21 hours ago

TLE from 21 hours ago
0 FALCON 9 R/B
1 42433U 17017B   25308.70272112  .00020496  00000-0  22591-2 0  9994
2 42433  26.1024  12.0971 6751923  59.8531 349.8936  2.99412582 83383
Epoch: 2025-11-04T16:51Z
TLE epoch observation values (Epoch: 2025-11-04T16:51:55.104Z)
Latitude
-0.00005°
Longitude
74.936°
Altitude
1,863.263 km
Speed
8.782 km/s
True Right ascension
00h 48m 24s
True Declination
0° 00' 00"
Sunlit
Object was in full shadow at epoch
Visualization orbit readout
Latitude
Unknown
Longitude
Unknown
Altitude
Unknown
Speed
Unknown
Apparent Right ascension
Unknown
Apparent Declination
Unknown
Sunlit
N/A
Visualization observer readout
Local Sidereal Time
09:30:50
Azimuth
Unknown
Elevation
Unknown
Doppler factor
Unknown
Orbital elements
Apogee altitude
27,691.581 km
Perigee altitude
227.735 km
Semi-major axis
20,337.795 km
Eccentricity
0.67519
Inclination
26.1024°
RAAN
12.0971°
Arg. of periapsis
59.8531°
True anomaly
299.75844°
Mean anomaly
349.8936°
Eccentric anomaly
331.33884°
Mean motion
0.74832 °/min
Orbital period
481.08 mins
BSTAR
0.0022591
Loading maneuver chart data...
Computing Atmospheric mass density...
Loading historical data...
Loading historical data...
Loading historical data...
Loading historical data...
Loading historical data...
Loading historical data...
Loading historical data...
Other satellites on launch #17 in the year 2017 (2017-03-30 UTC)

Documentation

Showing up to 5 results
|